RH
25 26 27 28 29 29 29 30 31 31 31 31 32 33 34 35 35 37 39 41 43 44 44 45 46 48 50 52 54 54 54 52 51 51 52 53 53 53 51 50 50 51 51 51 54 59 63 63 61 59 56 55 54 53 53 53 54 53 53 51 49 47 45 45 44 42 40 39 40 45 51 56 60 62 64 65 65 64 64 62 61 60 60 60 61 63 67 69 71 72 72 69 67 66 66 68 70 71 73 73 73 73 72
24 24 25 27 28 28 28 30 31 32 32 32 33 33 34 34 35 36 38 40 41 41 41 42 44 47 50 53 55 55 53 50 49 48 49 50 52 52 52 52 52 53 53 52 55 58 63 64 63 60 56 54 53 53 53 53 53 53 52 51 49 47 45 45 44 43 40 38 37 39 43 50 55 59 61 62 63 63 63 62 61 60 59 58 59 61 65 67 69 71 73 73 72 71 71 72 73 74 75 75 76 76 76
23 24 24 26 27 27 28 29 31 31 31 32 32 33 34 36 37 37 37 37 38 38 39 41 43 46 50 54 56 56 54 50 48 47 47 49 50 52 53 54 55 56 55 54 54 57 60 63 63 61 58 55 53 52 52 53 53 52 52 50 48 46 45 44 43 42 41 39 37 37 39 45 50 55 58 60 61 62 62 62 61 60 59 58 59 61 63 66 68 71 74 74 75 75 75 76 76 76 76 75 75 75 75
25 25 25 25 26 26 26 28 30 31 31 31 31 33 35 41 42 40 35 34 34 35 37 39 42 46 52 56 57 56 54 51 49 48 48 50 51 52 54 56 58 59 58 56 55 56 56 58 60 60 60 57 55 53 52 52 52 52 51 49 48 45 44 43 42 41 40 39 38 38 39 42 45 49 52 55 58 61 62 62 62 61 60 60 60 61 62 64 67 70 73 74 75 75 76 77 77 76 75 74 73 73 73
29 27 26 26 25 25 25 27 28 29 30 30 30 32 34 40 41 39 33 31 31 33 35 38 44 51 57 60 60 59 55 53 51 50 50 52 53 54 55 58 60 61 60 59 57 56 55 55 56 58 59 58 57 55 54 53 53 52 51 50 48 46 44 42 41 40 40 40 40 39 39 41 42 43 45 49 53 57 60 61 62 62 62 62 62 62 63 64 66 68 71 72 73 74 74 74 75 74 73 72 72 71 71
33 31 28 27 26 26 25 26 27 28 29 29 29 30 32 34 35 34 30 28 28 29 30 38 47 54 59 61 62 62 59 56 54 53 52 53 54 55 57 58 60 60 60 59 58 56 54 54 55 56 57 57 56 55 54 54 53 52 52 51 49 48 46 44 42 41 40 41 40 40 40 40 39 40 41 44 48 52 56 59 60 62 64 64 63 64 64 65 66 68 70 70 71 71 71 71 71 71 70 70 70 70 70
35 33 30 28 27 26 26 26 27 28 28 28 28 29 30 30 30 30 30 31 30 29 28 38 47 55 63 66 67 64 61 59 57 55 53 54 55 56 57 58 58 59 59 58 57 55 53 53 54 55 55 54 54 53 52 52 51 51 51 50 50 49 48 46 44 43 42 41 40 40 39 39 39 39 40 42 45 48 51 54 57 59 62 64 65 65 65 66 68 70 71 70 69 68 68 67 67 66 66 66 67 68 69
34 32 30 29 28 27 26 25 27 27 28 27 27 28 30 30 29 29 32 33 32 31 32 42 50 57 65 70 70 67 63 61 59 58 55 54 55 56 57 57 58 58 58 57 56 55 54 53 53 53 52 52 51 50 49 48 48 48 48 49 49 49 49 47 45 44 43 41 40 39 40 40 40 40 40 42 43 45 47 49 52 55 59 62 64 64 65 67 70 72 74 74 71 68 65 65 64 63 62 62 63 63 64
34 32 30 29 27 26 25 25 25 27 27 27 27 27 28 29 29 29 30 30 32 35 40 47 52 57 62 66 66 66 65 64 63 63 60 57 56 56 58 58 58 57 56 55 54 54 53 53 52 51 49 48 47 47 46 45 44 44 45 47 48 50 51 49 47 45 43 42 41 41 41 42 42 41 40 41 41 42 43 45 48 52 57 59 60 61 63 67 70 72 74 76 74 70 66 64 63 62 61 60 60 60 60
35 33 30 28 27 26 25 25 25 26 26 26 26 27 27 28 28 28 28 28 30 34 39 43 47 51 55 58 61 62 63 63 64 63 61 58 56 55 57 57 56 54 53 52 51 51 51 51 50 49 48 47 45 44 43 42 41 41 41 43 46 49 51 51 49 47 44 43 42 41 41 42 41 40 38 37 37 38 39 42 44 48 53 55 56 58 62 66 69 71 72 74 74 72 67 66 65 63 62 61 60 59 58
35 34 31 27 26 26 26 26 26 26 26 26 26 27 27 28 28 28 28 28 29 32 36 39 41 44 47 50 53 55 57 58 59 60 59 57 55 54 54 55 54 52 50 49 49 49 49 49 48 47 47 46 45 43 41 40 39 39 38 38 40 44 49 51 51 50 47 44 42 41 40 40 39 37 33 31 31 32 34 37 41 45 49 50 53 56 61 65 68 70 71 72 71 70 67 66 66 65 65 64 62 61 60
33 33 29 25 24 25 26 26 27 27 26 27 27 28 28 28 29 29 29 29 30 32 33 35 37 39 42 45 47 50 53 56 58 60 59 58 56 54 54 54 52 51 48 48 48 48 49 48 47 46 45 45 44 43 41 39 38 37 36 34 34 37 42 46 49 50 48 45 43 41 40 38 36 33 31 28 27 27 29 32 36 40 44 46 49 53 58 61 64 66 66 66 66 65 64 64 64 65 66 66 65 64 63
31 32 30 25 23 24 26 27 28 28 28 28 28 29 29 30 30 30 30 30 31 31 31 33 35 38 41 43 47 52 57 59 61 61 60 60 59 59 57 56 54 52 50 49 48 48 48 46 45 45 45 45 44 43 40 38 37 35 33 30 29 31 34 38 41 44 45 45 44 43 41 39 35 33 31 30 29 27 27 28 31 34 37 39 42 46 49 51 53 55 56 57 58 58 58 59 61 62 64 65 65 65 65
28 31 31 27 25 24 25 27 28 29 30 30 30 31 31 31 31 31 31 31 31 32 31 33 36 39 41 43 46 52 59 63 64 64 63 65 66 66 63 60 58 55 53 51 50 49 47 45 44 43 43 44 44 42 40 38 36 33 28 25 25 27 28 31 34 37 40 42 45 46 44 41 37 35 34 33 33 32 30 30 30 30 31 32 33 35 37 38 39 42 45 47 49 51 52 54 55 58 60 62 63 64 65
25 29 33 32 29 26 25 27 28 30 31 31 32 32 32 32 32 32 32 32 33 32 32 33 35 38 41 42 45 50 56 61 63 64 63 65 68 69 69 65 62 59 56 53 51 49 48 46 44 43 43 43 43 41 39 36 33 29 24 22 23 26 26 27 28 30 33 38 42 45 45 43 40 38 36 35 35 35 35 34 34 33 32 32 31 31 30 29 30 32 35 38 41 44 46 48 50 53 56 58 60 61 62
24 29 35 38 36 31 26 27 28 30 31 32 32 33 34 34 34 34 33 33 33 33 33 33 34 35 38 40 44 49 54 57 59 61 60 61 63 66 69 67 64 60 57 54 52 50 48 47 46 45 45 45 43 42 39 35 32 28 25 23 23 24 25 25 25 26 30 34 38 42 44 44 44 44 42 40 39 38 38 37 37 37 37 36 35 33 31 28 28 29 31 34 36 39 42 44 47 49 52 54 55 57 59
23 26 32 36 36 34 29 27 28 30 32 32 33 33 34 35 35 35 34 34 33 33 33 33 33 34 35 37 41 45 48 51 54 56 56 56 58 61 65 64 61 58 56 54 52 51 50 49 48 47 47 46 45 44 42 37 33 31 30 28 26 25 25 25 25 26 28 32 36 40 42 44 47 49 48 45 43 41 39 38 38 38 39 39 39 37 34 30 29 29 31 33 35 37 40 42 45 47 49 51 52 54 56
22 23 26 29 30 30 29 27 28 30 32 33 33 33 33 34 35 35 34 34 33 33 32 33 33 33 34 35 37 40 42 46 50 53 56 55 55 57 60 58 57 56 56 55 53 52 50 50 50 50 49 48 47 46 44 41 37 34 33 31 29 26 27 26 26 27 28 30 34 38 41 42 45 47 47 45 43 40 38 37 37 37 38 40 41 41 38 33 30 29 30 32 35 37 40 42 44 47 48 49 50 52 55
21 22 22 23 24 25 25 25 26 28 31 33 33 33 33 33 34 34 34 33 33 32 32 32 32 32 33 34 35 36 38 41 45 51 56 57 56 56 57 56 56 56 56 55 54 52 51 51 50 51 52 50 48 46 45 43 40 37 35 32 29 27 27 27 27 28 29 29 30 32 32 33 35 38 40 39 38 35 33 31 30 31 32 35 38 40 39 35 31 29 28 31 34 37 41 43 46 47 49 49 50 52 55
21 21 21 21 21 21 21 22 23 25 27 30 32 32 32 32 32 33 33 33 33 32 32 31 31 32 32 34 35 35 36 37 41 47 53 56 57 57 57 57 57 57 58 57 55 53 51 51 51 51 51 50 47 45 44 44 42 40 38 34 30 27 26 27 28 29 29 28 26 25 22 23 25 28 30 32 32 31 28 26 24 24 25 28 32 35 36 33 30 28 26 28 31 35 40 44 47 49 50 50 51 53 55
21 21 21 20 20 20 20 20 21 22 24 27 29 31 31 31 31 32 32 33 32 32 32 31 31 31 31 33 34 35 36 36 38 42 48 52 55 57 57 58 58 58 59 58 57 55 52 52 51 51 50 49 47 44 44 45 45 45 43 39 34 29 26 27 28 28 28 26 23 21 19 20 21 23 25 28 31 32 32 29 26 24 22 23 25 28 30 29 27 26 24 24 27 31 37 43 48 52 54 54 54 55 55
20 20 20 20 19 19 19 19 19 20 22 24 27 29 30 30 30 31 32 32 32 32 32 32 32 31 31 32 34 35 36 35 36 38 42 49 54 57 57 57 59 60 60 60 59 57 55 53 53 52 52 50 48 45 44 45 46 47 47 44 40 34 28 27 28 29 28 26 23 21 20 22 23 25 27 29 32 34 36 34 31 27 24 21 21 23 25 25 24 23 22 22 23 27 32 40 46 52 56 57 58 57 56
20 20 19 19 19 19 19 19 19 20 21 23 25 27 28 29 30 31 31 31 32 32 33 33 33 32 32 32 34 35 36 35 34 35 40 47 52 55 55 57 59 61 62 62 61 60 58 56 55 54 54 53 51 49 47 47 47 48 48 48 46 41 33 29 28 29 31 30 27 26 27 28 30 32 32 32 33 35 37 36 34 30 25 21 20 20 22 23 24 23 22 20 21 23 28 36 43 50 56 59 60 59 57
21 20 20 20 20 20 20 20 20 20 20 22 24 25 27 29 30 31 31 31 32 34 35 35 35 34 33 33 34 35 36 35 34 34 38 45 49 51 52 55 58 61 63 63 63 62 61 59 58 57 57 56 55 53 51 50 49 50 51 51 50 47 40 33 30 30 33 34 33 32 33 36 37 38 38 37 35 35 36 35 33 30 26 23 20 19 21 24 25 25 24 21 20 21 25 32 40 48 54 59 61 59 56
23 22 22 22 22 21 21 21 20 20 20 22 23 24 26 28 30 31 31 32 34 35 37 38 37 37 36 35 35 36 37 36 35 35 38 42 44 45 47 52 56 60 62 64 65 64 63 63 62 61 60 59 58 57 55 53 53 53 54 54 53 51 48 39 33 30 32 36 37 38 39 42 44 44 44 42 39 36 34 32 31 29 26 24 22 20 21 24 27 28 28 25 23 23 25 30 37 45 52 57 59 58 54
26 25 24 23 23 22 22 21 21 21 21 22 23 24 26 28 30 31 32 33 35 38 39 39 39 38 38 38 38 38 38 36 36 36 38 39 42 45 49 58 64 67 67 67 66 64 63 64 64 64 63 62 61 60 58 56 55 56 56 55 54 53 51 45 38 32 31 35 39 41 43 46 47 48 49 47 43 39 35 31 29 27 24 25 26 27 28 27 29 30 31 30 28 26 27 30 36 43 49 54 57 57 53
29 28 27 26 25 24 23 22 22 22 22 23 24 25 27 29 30 32 34 37 39 39 39 40 40 40 40 40 40 40 39 39 39 40 43 48 51 55 57 65 70 72 72 68 64 62 61 62 64 65 66 66 64 63 61 58 56 55 55 54 53 52 52 49 44 38 32 34 37 40 43 47 50 53 54 50 46 41 37 32 29 26 24 23 26 30 35 34 33 32 32 32 31 30 30 32 36 41 47 52 55 55 52
30 30 30 30 29 28 26 25 24 24 24 24 26 27 29 30 32 34 38 41 42 41 40 41 41 42 42 42 41 40 39 42 46 50 54 58 60 60 58 60 65 69 68 62 58 56 55 56 57 59 62 65 66 65 62 59 56 53 51 50 51 51 52 51 49 45 38 36 36 38 40 43 48 53 54 52 47 42 38 34 31 28 26 24 26 31 38 40 39 37 35 34 33 33 33 34 38 42 46 50 53 53 52
31 31 32 33 33 32 31 29 27 27 27 27 28 30 31 33 35 38 43 43 43 43 41 42 42 42 42 42 40 39 40 46 52 57 59 60 59 56 52 51 53 56 56 53 51 51 53 50 49 49 51 56 59 60 60 56 52 49 47 49 51 53 54 54 53 51 47 43 40 39 39 41 44 47 50 50 46 42 38 34 33 32 30 26 28 33 40 44 46 44 41 38 36 35 35 37 39 43 46 49 51 52 51
33 33 33 34 35 36 36 36 35 34 32 32 33 34 36 38 40 42 45 45 45 44 43 43 43 43 43 43 42 43 45 55 59 60 58 55 52 49 47 45 45 47 50 54 56 57 55 50 46 44 44 47 49 51 52 50 48 46 46 51 53 55 56 56 55 54 52 49 47 45 43 44 45 47 51 51 48 44 39 39 37 35 30 26 28 34 41 45 48 50 49 46 42 40 38 39 41 43 46 49 51 52 52
35 35 36 37 38 38 39 40 41 41 40 40 40 41 41 42 44 45 46 46 46 45 44 44 44 44 44 44 45 47 52 56 57 55 53 51 50 49 49 51 55 59 63 67 66 61 54 49 45 43 41 42 43 44 46 46 46 47 49 54 57 58 58 58 56 54 53 53 53 53 51 50 50 49 50 51 50 48 45 41 37 33 30 26 27 32 40 44 47 51 54 53 50 47 44 43 43 45 47 48 51 52 53
37 37 38 39 39 39 40 42 43 43 42 42 43 43 43 44 44 45 46 46 46 45 45 45 45 46 46 46 47 47 49 50 50 51 54 60 64 65 62 63 66 69 72 69 63 57 51 47 44 42 40 39 40 42 44 46 47 50 53 57 59 59 59 57 55 53 52 55 57 58 57 56 55 54 53 52 51 51 50 46 42 38 32 28 27 29 37 42 45 49 53 57 56 54 50 48 47 47 47 49 50 52 53
38 39 39 40 40 41 41 43 44 43 42 42 42 43 45 46 46 46 46 46 45 45 44 45 45 46 47 48 48 47 46 45 45 46 51 65 71 73 73 67 65 65 65 60 54 50 47 45 43 42 40 40 41 43 45 47 48 50 53 55 56 57 56 54 53 53 54 57 59 60 60 59 58 57 57 57 57 56 55 52 48 43 38 33 29 29 32 40 44 46 50 56 60 61 59 56 53 51 49 49 50 52 53
39 40 41 41 42 43 44 44 44 44 44 45 46 47 47 47 47 48 49 49 48 47 46 45 44 44 46 48 49 48 46 44 44 44 47 60 67 69 66 58 55 53 54 52 50 48 46 45 44 43 43 43 45 46 48 49 49 49 50 50 50 51 53 54 55 56 58 59 61 61 61 60 59 58 59 60 61 61 60 58 55 51 46 40 35 31 30 37 42 44 46 52 58 64 66 64 61 57 53 52 51 51 52
41 41 42 43 44 45 45 45 46 46 47 47 48 48 48 48 48 49 49 50 49 49 47 45 44 44 46 49 50 49 47 45 44 44 46 51 55 56 52 49 48 50 50 50 49 48 47 45 44 44 45 46 47 47 48 48 49 49 49 48 48 50 54 57 58 59 60 60 61 61 60 59 58 57 57 60 62 63 63 62 60 58 54 48 41 36 31 35 39 43 44 48 54 61 68 71 69 65 60 56 53 52 52
43 43 43 43 44 45 46 47 48 48 49 49 49 48 48 48 48 48 48 49 48 47 46 46 46 47 49 51 51 50 48 47 46 46 46 47 47 46 44 44 46 50 52 52 51 50 48 46 46 46 47 47 46 46 46 46 46 46 47 46 48 51 56 56 57 57 57 57 56 56 56 55 54 53 53 56 59 62 63 64 63 62 59 55 48 42 35 34 38 42 43 45 50 57 65 72 74 73 68 63 58 54 53
45 44 44 44 44 45 47 48 48 49 50 50 49 49 48 47 47 47 47 46 46 46 46 45 45 47 50 51 52 51 50 49 48 48 47 47 45 43 41 42 46 51 55 55 53 50 46 45 46 46 47 46 45 44 43 42 42 43 43 43 45 49 53 53 53 52 50 49 49 49 48 48 48 48 49 52 55 59 62 64 64 63 62 59 55 48 42 37 38 41 44 45 48 52 59 66 71 74 74 70 65 60 56
47 48 48 47 47 47 49 49 49 50 51 50 50 49 48 47 46 45 44 44 44 44 44 43 43 44 46 47 48 49 50 50 50 49 48 46 44 42 42 44 47 51 54 52 49 45 42 43 44 45 46 45 43 42 41 40 40 41 42 42 44 47 52 51 48 45 43 44 45 45 44 43 44 46 50 52 54 57 60 62 63 63 63 61 59 54 49 42 39 40 45 46 47 50 55 59 64 69 73 74 72 69 64
49 49 49 50 49 49 50 49 49 49 50 50 50 49 49 47 45 43 42 42 42 42 42 41 41 41 42 43 44 45 47 49 50 49 49 47 46 44 45 46 47 48 48 46 44 42 40 41 43 45 46 45 44 43 42 41 41 41 42 43 44 47 51 52 48 44 42 43 44 44 43 42 43 46 52 54 54 55 57 60 62 61 61 61 60 58 54 48 42 41 45 47 48 49 53 56 58 61 66 72 75 75 72
50 50 51 51 51 51 50 49 49 48 48 48 48 47 47 45 43 42 41 41 40 40 40 40 39 39 39 39 40 41 43 45 48 49 50 49 48 47 46 46 46 45 44 43 42 41 40 42 45 47 49 50 49 47 46 46 46 46 45 45 45 47 50 50 47 43 41 43 44 44 44 42 43 46 52 54 55 55 56 59 60 60 60 60 60 60 58 53 48 44 43 47 50 51 52 54 56 57 59 65 70 74 76
51 52 53 54 53 52 50 49 48 47 46 46 45 45 44 42 41 40 40 40 40 40 40 40 39 39 38 38 38 39 40 43 47 51 53 52 50 49 48 47 46 46 46 46 45 44 44 45 47 49 52 52 51 50 50 52 53 53 53 50 49 49 49 48 45 43 41 42 43 43 43 43 43 45 49 54 57 57 56 57 58 59 59 59 59 60 60 57 53 48 44 46 49 52 53 54 55 57 57 58 61 66 72
52 54 58 59 58 55 52 49 48 47 46 45 44 43 42 41 40 40 40 40 39 40 41 41 40 39 38 38 38 39 40 44 49 53 55 52 52 51 50 49 48 48 48 49 49 48 47 47 48 50 51 52 52 52 54 58 60 62 62 60 58 56 54 51 49 46 45 44 43 43 43 43 43 44 46 52 57 59 56 56 56 57 58 59 59 60 60 60 58 54 48 46 47 51 54 55 56 57 57 56 56 58 63
51 54 58 60 59 56 53 51 51 50 50 48 46 45 43 42 42 42 41 41 41 41 42 42 41 40 39 39 39 40 41 45 48 51 51 50 50 51 52 51 50 50 51 51 51 50 49 48 48 48 50 51 53 55 58 63 66 68 68 67 64 62 60 58 56 53 52 50 49 47 46 45 45 44 45 49 54 58 57 55 55 56 58 59 60 61 62 63 62 59 54 49 46 48 52 55 57 58 58 57 56 55 56
48 51 53 54 54 53 52 52 52 52 51 49 48 46 44 43 43 42 42 42 42 42 43 43 42 42 41 41 41 41 43 44 45 46 46 46 48 50 52 52 51 51 51 52 51 50 49 48 48 48 48 49 51 54 57 61 63 65 65 63 62 60 58 57 57 56 55 54 53 52 50 48 46 44 44 47 51 55 57 56 56 56 58 59 60 62 63 66 66 65 60 54 49 47 49 54 57 59 60 59 57 56 55
45 47 49 50 50 50 50 50 50 50 49 47 46 46 45 44 44 43 43 43 43 44 44 44 43 43 43 43 43 43 43 43 43 43 43 45 46 48 50 52 52 52 52 52 52 53 53 52 51 49 48 49 50 51 53 54 55 56 55 55 53 52 51 50 50 50 50 50 50 50 48 46 44 43 43 45 48 51 54 55 57 58 59 61 61 62 64 66 68 69 65 60 55 50 48 52 56 59 61 60 59 57 56
40 43 45 46 47 48 49 49 50 49 48 47 47 46 46 45 45 44 44 44 44 44 44 44 44 43 43 43 42 42 42 41 42 42 44 45 46 47 49 51 52 54 54 54 55 57 59 58 56 54 51 51 50 51 51 51 51 50 50 49 48 46 45 44 43 43 43 44 44 44 43 42 41 40 40 42 44 47 49 52 56 59 60 61 62 63 64 66 68 69 68 64 59 56 52 52 55 58 61 61 59 57 55
36 38 41 43 44 45 46 47 47 48 47 47 47 46 46 46 45 45 46 46 45 45 44 44 44 44 43 43 42 42 41 41 42 43 44 45 46 48 49 51 52 54 55 55 56 58 60 61 60 59 56 55 54 54 53 52 50 50 49 48 47 46 44 43 42 42 42 42 41 41 40 39 38 37 37 38 40 42 44 47 50 54 57 58 59 59 60 63 66 68 67 64 62 60 58 56 56 58 61 61 60 58 55
34 35 37 38 39 39 39 40 41 42 42 43 44 45 46 46 46 46 47 47 47 47 46 45 45 44 44 43 42 42 42 42 42 43 43 44 46 48 49 51 52 53 54 55 56 57 58 59 59 58 58 58 57 57 56 55 54 53 53 53 52 51 50 48 47 46 45 44 43 42 41 39 37 36 35 36 38 39 40 41 43 46 49 51 52 53 54 57 60 62 63 60 60 61 63 60 59 58 60 60 60 59 57
34 34 34 34 34 33 32 33 33 34 35 36 38 40 42 43 44 45 46 48 49 49 48 47 46 45 44 44 43 42 42 42 42 42 43 44 45 47 48 49 51 52 52 53 54 55 55 55 55 55 55 56 56 57 57 57 56 56 56 55 55 55 54 53 52 51 50 49 48 47 45 43 41 39 38 37 38 38 39 38 39 40 41 43 45 47 49 50 52 54 55 54 54 57 63 63 61 59 59 59 59 59 59
34 35 34 34 32 31 29 28 29 29 30 31 32 34 36 38 40 42 43 45 48 50 50 49 47 46 46 45 44 43 43 42 42 42 42 43 45 47 48 49 49 50 50 51 51 52 53 53 53 53 53 54 54 54 54 54 54 54 54 54 54 54 54 54 54 54 53 53 53 53 52 51 49 47 44 42 41 41 40 39 38 37 37 37 38 40 43 46 47 48 49 49 49 52 58 62 63 61 58 59 59 59 58
33 34 33 34 33 32 30 28 27 27 27 28 29 31 33 33 34 36 38 41 45 49 51 49 47 45 44 44 43 42 41 41 40 41 44 43 43 44 47 47 48 49 50 50 51 52 52 52 52 52 52 53 53 53 53 52 52 51 52 52 53 53 53 53 53 53 54 54 55 56 57 58 57 55 53 51 48 46 45 43 41 40 38 37 36 37 39 42 44 45 46 46 46 47 51 59 62 62 59 58 58 58 58
33 33 32 32 34 35 37 36 33 29 27 26 26 27 27 27 27 28 29 32 36 39 42 43 42 40 38 40 40 39 39 39 38 39 43 42 41 40 41 45 48 49 48 50 50 50 50 51 51 50 50 50 50 50 51 51 51 50 50 51 51 50 49 49 49 51 52 54 55 57 59 62 63 63 62 60 57 55 52 49 47 44 42 39 37 36 37 39 42 44 45 45 44 45 47 54 60 63 61 58 56 56 57
32 32 31 30 32 35 37 37 36 35 33 29 26 24 23 23 22 22 23 24 26 28 30 32 33 34 33 33 34 34 33 34 35 35 37 39 39 39 39 43 46 47 45 46 47 48 48 48 47 46 45 45 45 45 45 45 45 46 47 48 47 46 46 46 47 49 51 52 54 56 59 63 66 68 69 68 66 64 61 58 54 51 48 44 40 37 36 38 40 43 44 44 44 44 45 50 55 60 62 59 56 55 55
29 30 31 28 28 29 32 32 33 33 33 30 26 24 25 25 24 23 22 22 22 22 23 23 25 27 29 28 28 27 27 27 29 30 30 33 36 40 41 40 40 38 36 39 43 45 43 43 42 42 40 41 41 41 42 41 42 43 44 45 45 46 46 47 48 50 51 52 53 55 57 61 65 68 71 72 72 72 71 68 64 60 56 51 46 41 38 39 40 42 44 45 44 44 44 47 52 56 58 57 55 53 52
24 26 29 28 26 25 26 28 29 28 27 24 23 24 25 25 25 24 24 23 23 23 23 23 23 24 26 26 25 24 23 22 23 25 26 26 28 31 34 33 32 31 32 34 37 39 38 35 35 36 37 39 41 42 43 44 44 45 45 46 46 47 47 48 48 49 50 51 51 52 53 55 58 62 66 70 74 77 79 78 76 71 66 60 54 48 43 42 42 44 45 45 45 45 44 46 49 52 55 54 52 51 51
22 23 24 25 26 26 24 24 24 23 23 22 22 23 23 23 23 23 23 24 25 25 26 26 26 26 26 25 24 23 21 20 20 20 21 22 23 23 25 27 28 29 30 34 35 34 33 33 33 34 35 38 40 42 43 44 46 46 46 45 44 44 44 44 44 44 44 45 46 46 47 49 50 53 57 63 69 75 80 82 82 80 77 71 64 58 52 49 47 47 47 47 47 46 45 46 47 49 52 52 51 50 51
22 22 22 23 24 25 25 23 22 22 22 23 23 22 22 21 21 21 22 23 24 24 25 26 26 26 24 23 22 21 19 18 17 17 17 19 20 22 23 23 24 25 26 30 31 30 30 31 32 33 34 34 36 38 38 38 39 40 41 40 39 39 38 38 38 38 38 38 38 39 40 41 43 45 47 52 59 66 75 80 82 83 83 79 75 69 63 58 54 52 51 50 49 48 47 46 47 48 50 51 51 51 52
21 20 19 20 21 22 22 21 21 21 22 22 22 22 21 21 20 20 20 20 20 20 20 20 20 19 19 18 17 17 16 15 14 14 14 16 17 19 20 21 21 21 22 24 25 26 26 27 29 31 31 29 30 31 33 33 33 33 33 33 32 32 31 31 31 30 30 30 30 31 32 34 36 38 41 44 48 54 62 71 77 82 83 83 81 78 74 69 64 59 56 54 52 50 49 48 47 47 48 49 50 52 54
21 20 20 20 20 19 19 19 19 19 20 20 20 20 20 20 19 18 18 17 16 16 15 15 15 14 14 13 13 13 13 12 12 12 12 13 14 15 16 18 19 19 20 19 19 20 21 22 24 25 25 27 26 25 25 27 28 28 27 28 28 28 27 26 26 25 25 25 25 25 25 27 29 32 36 39 42 46 50 58 65 72 77 80 81 81 80 77 74 69 64 60 56 53 50 48 47 47 48 48 49 51 54
24 24 24 23 22 21 20 20 19 19 19 19 19 19 18 17 17 16 15 15 14 14 13 13 13 13 13 13 13 12 12 12 11 11 11 12 13 13 14 14 14 14 15 14 14 14 14 16 18 20 21 24 25 23 20 21 21 22 23 24 25 25 25 25 24 23 22 22 22 22 22 23 24 27 30 34 38 41 44 48 53 58 64 68 71 74 76 78 78 76 72 67 62 57 53 50 48 47 47 48 48 49 52
29 28 27 26 25 24 23 23 22 21 20 19 18 17 16 15 15 14 14 15 15 15 15 15 15 15 15 15 15 15 15 14 14 14 14 14 14 14 14 14 14 13 13 12 12 12 12 12 13 15 17 19 21 22 22 19 17 16 17 19 20 21 22 22 22 22 22 22 22 23 23 24 24 25 27 30 33 36 39 42 45 48 52 55 58 61 65 69 72 74 75 72 67 62 58 53 50 47 47 48 48 48 50